Hourly Data Report for July 31, 2021

CAMPBELL RIVER A
BRITISH COLUMBIA
Current Station Operator: NAVCAN

49°57'07.000" N
125°16'23.000" W
108.80 m
1021270
YBL

Download Data

Hourly Data (July 2021)
Hourly Data Report for July 31, 2021
TIME
LST
Temp Definition
°C
Dew Point Definition
°C
Rel Hum Definition
%
Precip. Amount Definition
mm

Wind Dir Definition
10's deg

Wind Spd Definition
km/h
Visibility Definition
km
Stn Press Definition
kPa
Hmdx Definition


Wind Chill Definition


Weather Definition


00:00 21.4 11.3 52 LegendMM 29 12 LegendMM 100.26     LegendNANA
01:00 17.8 11.4 66 LegendMM 30 9 LegendMM 100.27     LegendNANA
02:00 20.1 11.8 59 LegendMM 31 16 LegendMM 100.28     LegendNANA
03:00 18.2 12.2 67 LegendMM 31 18 LegendMM 100.31     LegendNANA
04:00 17.3 12.7 74 LegendMM 32 16 LegendMM 100.34     LegendNANA
05:00 16.3 12.3 77 LegendMM 30 11 LegendMM 100.37     LegendNANA
06:00 20.0 12.1 60 LegendMM 31 19 LegendMM 100.40     LegendNANA
07:00 20.9 12.9 60 LegendMM 32 14 LegendMM 100.41     LegendNANA
08:00 23.6 12.6 50 LegendMM 32 14 LegendMM 100.43 26   LegendNANA
09:00 25.6 12.0 42 LegendMM 32 16 LegendMM 100.45 28   LegendNANA
10:00 23.1 14.6 59 LegendMM 11 10 LegendMM 100.50 27   LegendNANA
11:00 23.3 13.7 54 LegendMM 7 7 LegendMM 100.58 26   LegendNANA
12:00 24.7 14.1 51 LegendMM 9 7 LegendMM 100.58 28   LegendNANA
13:00 27.3 13.3 42 LegendMM 10 3 LegendMM 100.54 30   LegendNANA
14:00 29.7 11.7 32 LegendMM 5 11 LegendMM 100.49 32   LegendNANA
15:00 28.8 13.8 39 LegendMM 8 9 LegendMM 100.44 32   LegendNANA
16:00 29.5 12.5 35 LegendMM 5 7 LegendMM 100.41 32   LegendNANA
17:00 29.3 12.6 35 LegendMM 6 8 LegendMM 100.38 32   LegendNANA
18:00 28.0 13.1 39 LegendMM 18 2 LegendMM 100.39 31   LegendNANA
19:00 27.2 14.8 46 LegendMM 9 4 LegendMM 100.37 31   LegendNANA
20:00 23.7 15.5 60 LegendMM 30 5 LegendMM 100.40 28   LegendNANA
21:00 21.9 15.1 65 LegendMM 29 9 LegendMM 100.41 26   LegendNANA
22:00 22.2 13.5 57 LegendMM 30 14 LegendMM 100.41 25   LegendNANA
23:00 22.0 12.8 55 LegendMM 30 15 LegendMM 100.41 25   LegendNANA

Notes on Data Quality.

Legend

  • E = Estimated
  • M = Missing
  • NA = Not Available*
  • [empty] = Indicates an unobserved value
Date modified: